DW9882 Weather Reports


Display with metric or nautical units.
time (UTC)temp
F
wind
direction
speed
MPH
gust
MPH
rain 1hr
in
rain 24hr
in
rain mn
in
humidity
%
barometer
mb
20240223162713 44 301 4.0 22.0 0.00 0.00 0.00 31 1021.3
20240223162213 43 285 3.0 14.0 0.00 0.00 0.00 32 1021.3
20240223161713 43 307 5.0 12.0 0.00 0.00 0.00 32 1021.5
20240223161212 43 315 4.0 14.0 0.00 0.00 0.00 33 1021.7
20240223160712 43 304 4.0 14.0 0.00 0.00 0.00 34 1021.7
20240223155712 43 325 1.0 12.0 0.00 0.00 0.00 36 1021.8
20240223155212 42 321 2.0 10.0 0.00 0.00 0.00 36 1021.9
20240223154712 42 278 1.0 5.0 0.00 0.00 0.00 35 1021.8
20240223154212 42 276 1.0 10.0 0.00 0.00 0.00 35 1021.8
20240223153712 42 280 3.0 10.0 0.00 0.00 0.00 35 1021.7
20240223153213 42 291 2.0 10.0 0.00 0.00 0.00 35 1021.8
20240223152712 41 305 2.0 10.0 0.00 0.00 0.00 35 1021.8
20240223152212 41 298 1.0 8.0 0.00 0.00 0.00 35 1021.7
20240223151712 41 312 2.0 10.0 0.00 0.00 0.00 35 1021.7
20240223150712 40 279 3.0 9.0 0.00 0.00 0.00 36 1021.7
20240223150214 40 291 2.0 13.0 0.00 0.00 0.00 37 1021.6
20240223144213 39 336 0.0 8.0 0.00 0.00 0.00 40 1021.5
20240223142713 37 280 1.0 7.0 0.00 0.00 0.00 42 1021.2
20240223142213 36 279 2.0 12.0 0.00 0.00 0.00 43 1021.2
20240223141712 35 292 1.0 7.0 0.00 0.00 0.00 45 1021.2
20240223140212 31 313 0.0 7.0 0.00 0.00 0.00 53 1021.0
20240223135713 31 342 0.0 0.0 0.00 0.00 0.00 54 1020.9
20240223135213 31 211 0.0 0.0 0.00 0.00 0.00 54 1020.8
20240223134712 31 211 0.0 0.0 0.00 0.00 0.00 54 1020.8
20240223133712 31 211 0.0 0.0 0.00 0.00 0.00 54 1020.7
20240223132713 31 173 0.0 0.0 0.00 0.00 0.00 55 1020.7
20240223132213 32 173 0.0 2.0 0.00 0.00 0.00 54 1020.7
20240223131712 32 173 0.0 0.0 0.00 0.00 0.00 53 1020.6
20240223131212 32 173 0.0 3.0 0.00 0.00 0.00 52 1020.6
20240223130213 34 211 0.0 2.0 0.00 0.00 0.00 48 1020.7
20240223124712 35 0 0.0 0.0 0.00 0.00 0.00 46 1020.5
20240223124212 35 0 0.0 0.0 0.00 0.00 0.00 46 1020.4
20240223123712 35 0 0.0 0.0 0.00 0.00 0.00 45 1020.4
20240223123212 35 0 0.0 0.0 0.00 0.00 0.00 45 1020.4
20240223122712 35 277 0.0 2.0 0.00 0.00 0.00 44 1020.4
20240223122212 34 289 1.0 3.0 0.00 0.00 0.00 46 1020.4
20240223121712 34 277 0.0 0.0 0.00 0.00 0.00 47 1020.5
20240223121212 34 277 0.0 6.0 0.00 0.00 0.00 47 1020.5
20240223120212 33 261 0.0 3.0 0.00 0.00 0.00 50 1020.5
20240223115714 33 261 0.0 0.0 0.00 0.00 0.00 50 1020.5
20240223115212 34 261 0.0 3.0 0.00 0.00 0.00 49 1020.5
20240223114712 34 244 0.0 3.0 0.00 0.00 0.00 49 1020.5
20240223114213 35 180 0.0 2.0 0.00 0.00 0.00 50 1020.5
20240223113712 36 298 0.0 0.0 0.00 0.00 0.00 48 1020.5
20240223113212 36 298 0.0 0.0 0.00 0.00 0.00 48 1020.6
20240223112712 37 298 0.0 0.0 0.00 0.00 0.00 47 1020.6
20240223112213 37 298 0.0 0.0 0.00 0.00 0.00 46 1020.6
20240223111714 37 298 0.0 0.0 0.00 0.00 0.00 45 1020.6
20240223111212 38 298 0.0 0.0 0.00 0.00 0.00 45 1020.6
20240223110712 38 298 0.0 0.0 0.00 0.00 0.00 45 1020.5
20240223110212 38 296 1.0 7.0 0.00 0.00 0.00 44 1020.4
20240223105713 38 273 1.0 6.0 0.00 0.00 0.00 44 1020.4
20240223105212 39 323 0.0 3.0 0.00 0.00 0.00 44 1020.4
20240223104712 38 281 1.0 8.0 0.00 0.00 0.00 44 1020.5
20240223104212 38 326 2.0 7.0 0.00 0.00 0.00 45 1020.5
20240223103712 37 303 1.0 5.0 0.00 0.00 0.00 47 1020.5
20240223103212 37 226 2.0 8.0 0.00 0.00 0.00 49 1020.5
20240223102712 35 304 3.0 12.0 0.00 0.00 0.00 53 1020.6
20240223101711 31 292 2.0 8.0 0.00 0.00 0.00 63 1020.6
20240223101211 29 304 1.0 3.0 0.00 0.00 0.00 68 1020.6
20240223100713 28 270 1.0 7.0 0.00 0.00 0.00 70 1020.6
20240223100211 28 225 0.0 1.0 0.00 0.00 0.00 71 1020.7
20240223095713 28 225 0.0 2.0 0.00 0.00 0.00 71 1020.6
20240223095212 28 225 0.0 0.0 0.00 0.00 0.00 71 1020.6
20240223094712 27 225 1.0 3.0 0.00 0.00 0.00 59 1020.6
20240223094212 30 232 2.0 3.0 0.00 0.00 0.00 59 1020.7
20240223093712 30 157 0.0 0.0 0.00 0.00 0.00 60 1020.8
20240223093212 30 114 0.0 0.0 0.00 0.00 0.00 61 1020.9
20240223092212 29 236 1.0 3.0 0.00 0.00 0.00 64 1021.0
20240223091712 29 165 0.0 2.0 0.00 0.00 0.00 64 1021.0
20240223091212 29 114 1.0 3.0 0.00 0.00 0.00 64 1021.0
20240223090712 29 150 1.0 2.0 0.00 0.00 0.00 64 1021.0
20240223090212 29 211 1.0 3.0 0.00 0.00 0.00 64 1021.1
20240223085712 29 138 1.0 2.0 0.00 0.00 0.00 63 1021.0
20240223085213 29 148 1.0 2.0 0.00 0.00 0.00 74 1021.0
20240223084712 27 280 0.0 2.0 0.00 0.00 0.00 74 1021.0
20240223084212 27 280 2.0 3.0 0.00 0.00 0.00 74 1021.0
20240223083712 27 200 0.0 3.0 0.00 0.00 0.00 74 1021.1
20240223083212 27 243 0.0 0.0 0.00 0.00 0.00 74 1021.1
20240223082712 27 243 1.0 3.0 0.00 0.00 0.00 74 1021.2
20240223082213 27 344 1.0 5.0 0.00 0.00 0.00 74 1021.1
20240223081712 27 175 0.0 0.0 0.00 0.00 0.00 74 1021.1
20240223081212 27 175 0.0 0.0 0.00 0.00 0.00 74 1021.1
20240223080711 27 175 0.0 0.0 0.00 0.00 0.00 74 1021.0
20240223080212 27 175 0.0 0.0 0.00 0.00 0.00 74 1021.0
20240223075712 27 175 0.0 2.0 0.00 0.00 0.00 74 1020.9
20240223074712 27 175 0.0 0.0 0.00 0.00 0.00 74 1020.9
20240223074212 27 175 0.0 0.0 0.00 0.00 0.00 73 1020.8
20240223073712 27 175 0.0 0.0 0.00 0.00 0.00 73 1020.8
20240223073212 28 175 0.0 0.0 0.00 0.00 0.00 72 1020.8
20240223072712 28 175 0.0 0.0 0.00 0.00 0.00 72 1020.7
20240223071211 28 175 0.0 0.0 0.00 0.00 0.00 72 1020.7
20240223070712 28 175 0.0 0.0 0.00 0.00 0.00 71 1020.7
20240223070212 28 175 0.0 0.0 0.00 0.00 0.00 71 1020.7
20240223065712 28 175 0.0 0.0 0.00 0.00 0.00 71 1020.6
20240223065213 29 175 0.0 0.0 0.00 0.00 0.00 71 1020.7
20240223064211 29 175 0.0 0.0 0.00 0.00 0.00 71 1020.7
20240223063212 29 175 0.0 0.0 0.00 0.00 0.00 71 1020.8
20240223062711 29 175 0.0 0.0 0.00 0.00 0.00 71 1020.8
20240223061212 29 175 0.0 0.0 0.00 0.00 0.00 70 1020.8
20240223060712 29 175 0.0 0.0 0.00 0.00 0.00 70 1020.7
20240223060212 29 244 0.0 2.0 0.00 0.00 0.00 71 1020.8
20240223055713 30 232 0.0 0.0 0.00 0.00 0.00 71 1020.8
20240223055214 30 232 0.0 3.0 0.00 0.00 0.00 70 1020.8
20240223054717 30 198 0.0 0.0 0.00 0.00 0.00 70 1020.8
20240223053712 30 198 0.0 0.0 0.00 0.00 0.00 70 1020.7
20240223053212 30 198 0.0 0.0 0.00 0.00 0.00 69 1020.8
20240223052712 31 198 0.0 0.0 0.00 0.00 0.00 68 1020.7
20240223052212 31 198 0.0 0.0 0.00 0.00 0.00 68 1020.8
20240223051712 31 198 0.0 0.0 0.00 0.00 0.00 67 1020.9
20240223051212 31 198 0.0 0.0 0.00 0.00 0.00 67 1020.9
20240223050712 32 198 0.0 0.0 0.00 0.00 0.00 67 1020.9
20240223050212 32 198 0.0 0.0 0.00 0.00 0.00 67 1020.9
20240223045712 32 198 0.0 0.0 0.00 0.00 0.00 67 1020.9
20240223045212 32 198 0.0 0.0 0.00 0.00 0.00 66 1020.9
20240223044711 33 198 0.0 0.0 0.00 0.00 0.00 66 1020.9
20240223044211 33 198 0.0 1.0 0.00 0.00 0.00 65 1020.9
20240223043712 33 198 0.0 1.0 0.00 0.00 0.00 65 1020.9
20240223042711 33 198 0.0 2.0 0.00 0.00 0.00 63 1020.8
20240223042211 34 198 0.0 0.0 0.00 0.00 0.00 63 1020.8
20240223041212 34 198 0.0 2.0 0.00 0.00 0.00 64 1020.7
20240223040712 34 198 1.0 3.0 0.00 0.00 0.00 64 1020.7
20240223035712 34 198 0.0 0.0 0.00 0.00 0.00 66 1020.7
20240223035212 34 198 1.0 3.0 0.00 0.00 0.00 67 1020.6
20240223034712 34 227 0.0 2.0 0.00 0.00 0.00 67 1020.7
20240223034211 34 227 0.0 0.0 0.00 0.00 0.00 68 1020.6
20240223033213 34 163 0.0 0.0 0.00 0.00 0.00 70 1020.6
20240223032712 35 163 0.0 0.0 0.00 0.00 0.00 70 1020.5
20240223031712 35 163 0.0 2.0 0.00 0.00 0.00 70 1020.6
20240223031212 35 163 1.0 3.0 0.00 0.00 0.00 69 1020.6
20240223030711 35 163 0.0 0.0 0.00 0.00 0.00 70 1020.6
20240223030211 36 163 0.0 0.0 0.00 0.00 0.00 70 1020.5
20240223025713 36 163 0.0 0.0 0.00 0.00 0.00 71 1020.5
20240223025212 36 163 0.0 5.0 0.00 0.00 0.00 71 1020.5
20240223024711 36 159 0.0 3.0 0.00 0.00 0.00 73 1020.5
20240223024212 36 113 0.0 0.0 0.00 0.00 0.00 73 1020.5
20240223023711 36 113 0.0 2.0 0.00 0.00 0.00 73 1020.5
20240223023211 36 204 0.0 1.0 0.00 0.00 0.00 74 1020.5
20240223022712 36 204 2.0 9.0 0.00 0.00 0.00 74 1020.5
20240223021711 35 293 2.0 5.0 0.00 0.00 0.00 76 1020.4
20240223021211 35 170 0.0 3.0 0.00 0.00 0.00 75 1020.4
20240223020713 36 192 0.0 2.0 0.00 0.00 0.00 74 1020.5
20240223020212 36 192 0.0 2.0 0.00 0.00 0.00 74 1020.4
20240223015713 36 266 1.0 2.0 0.00 0.00 0.00 73 1020.3
20240223015211 37 266 0.0 0.0 0.00 0.00 0.00 73 1020.3
20240223014712 37 266 0.0 0.0 0.00 0.00 0.00 72 1020.3
20240223014211 37 266 0.0 0.0 0.00 0.00 0.00 72 1020.3
20240223013711 38 266 0.0 0.0 0.00 0.00 0.00 71 1020.2
20240223012711 38 266 0.0 0.0 0.00 0.00 0.00 70 1020.1
20240223012212 39 266 0.0 0.0 0.00 0.00 0.00 70 1020.2
20240223011713 39 266 0.0 0.0 0.00 0.00 0.00 69 1020.1
20240223011213 40 266 0.0 0.0 0.00 0.00 0.00 68 1020.0
20240223010712 40 266 0.0 0.0 0.00 0.00 0.00 67 1019.9
20240223010211 40 266 0.0 0.0 0.00 0.00 0.00 67 1020.0
20240223005712 41 266 0.0 0.0 0.00 0.00 0.00 66 1019.8
20240223004711 41 266 0.0 0.0 0.00 0.00 0.00 64 1019.7
20240223003711 42 266 0.0 0.0 0.00 0.00 0.00 64 1019.8
20240223003212 42 266 0.0 0.0 0.00 0.00 0.00 63 1019.8
20240223002712 42 266 0.0 3.0 0.00 0.00 0.00 63 1019.8
20240223001711 42 266 0.0 0.0 0.00 0.00 0.00 63 1019.7
20240223000712 42 266 0.0 1.0 0.00 0.00 0.00 63 1019.8
20240223000212 42 266 0.0 0.0 0.00 0.00 0.00 63 1019.8
20240222235711 42 266 0.0 1.0 0.00 0.00 0.00 63 1019.8
20240222235211 42 266 0.0 1.0 0.00 0.00 0.00 63 1019.8
20240222234712 43 266 0.0 2.0 0.00 0.00 0.00 64 1019.9
20240222234212 43 266 0.0 2.0 0.00 0.00 0.00 64 1019.8
20240222233711 43 266 1.0 3.0 0.00 0.00 0.00 64 1019.8
20240222233211 43 175 0.0 3.0 0.00 0.00 0.00 66 1019.7
20240222232712 43 60 0.0 1.0 0.00 0.00 0.00 67 1019.7
20240222231711 43 60 0.0 0.0 0.00 0.00 0.00 68 1019.8
20240222231211 43 60 0.0 1.0 0.00 0.00 0.00 67 1019.7
20240222230712 43 60 0.0 0.0 0.00 0.00 0.00 68 1019.8
20240222225711 42 60 0.0 2.0 0.00 0.00 0.00 68 1019.8
20240222225212 42 60 0.0 2.0 0.00 0.00 0.00 69 1019.8
20240222224211 42 89 1.0 3.0 0.00 0.00 0.00 70 1019.8
20240222222211 42 56 2.0 9.0 0.00 0.00 0.00 71 1019.9
20240222221711 42 25 3.0 7.0 0.00 0.00 0.00 71 1019.8
20240222221212 42 38 1.0 5.0 0.00 0.00 0.00 72 1019.8
20240222215712 41 342 2.0 5.0 0.00 0.00 0.00 76 1019.9
20240222215211 41 42 3.0 9.0 0.00 0.00 0.00 76 1019.9
20240222214711 41 6 2.0 9.0 0.00 0.00 0.00 76 1019.9
20240222214211 40 322 2.0 9.0 0.00 0.00 0.00 77 1019.9
20240222213711 40 347 3.0 8.0 0.00 0.00 0.00 76 1019.9
20240222213211 40 348 0.0 5.0 0.00 0.00 0.00 76 1019.9
20240222212711 40 4 1.0 2.0 0.00 0.00 0.00 75 1020.0
20240222212211 40 272 1.0 3.0 0.00 0.00 0.00 75 1020.0
20240222211711 40 313 1.0 5.0 0.00 0.00 0.00 75 1020.0
20240222211210 40 355 1.0 7.0 0.00 0.00 0.00 75 1020.0
20240222210711 40 301 1.0 7.0 0.00 0.00 0.00 75 1020.0
20240222210212 40 337 2.0 6.0 0.00 0.00 0.00 74 1020.0
20240222205711 40 351 3.0 9.0 0.00 0.00 0.00 74 1019.9
20240222204711 40 55 1.0 3.0 0.00 0.00 0.00 75 1019.9
20240222204212 40 48 2.0 6.0 0.00 0.00 0.00 75 1019.9
20240222203711 40 343 2.0 5.0 0.00 0.00 0.00 76 1019.9
20240222203210 39 65 2.0 9.0 0.00 0.00 0.00 77 1019.9
20240222202711 39 53 3.0 5.0 0.00 0.00 0.00 77 1019.9
20240222202211 39 61 3.0 6.0 0.00 0.00 0.00 77 1019.8
20240222201711 39 59 3.0 6.0 0.00 0.00 0.00 78 1019.8
20240222200711 39 36 3.0 7.0 0.00 0.00 0.00 79 1019.9
20240222200211 39 58 5.0 8.0 0.00 0.00 0.00 79 1020.0
20240222195711 39 44 3.0 6.0 0.00 0.00 0.00 79 1020.0
20240222195211 39 57 2.0 7.0 0.00 0.00 0.00 80 1020.0
20240222194711 39 100 2.0 6.0 0.00 0.00 0.00 80 1020.1
20240222194210 39 90 2.0 3.0 0.00 0.00 0.00 80 1020.1
20240222193712 39 43 2.0 5.0 0.00 0.00 0.00 80 1020.0
20240222192712 39 74 2.0 3.0 0.00 0.00 0.00 80 1020.1
20240222192211 39 93 2.0 3.0 0.00 0.00 0.00 80 1020.0
20240222191210 39 81 1.0 3.0 0.00 0.00 0.00 80 1020.1
20240222190711 39 137 0.0 3.0 0.00 0.00 0.00 81 1020.1
20240222185712 39 49 1.0 3.0 0.00 0.00 0.00 80 1020.1
20240222185210 39 60 3.0 8.0 0.00 0.00 0.00 80 1020.1
20240222184710 39 108 3.0 6.0 0.00 0.00 0.00 80 1020.1
20240222184211 39 66 1.0 5.0 0.00 0.00 0.00 80 1020.2
20240222183711 39 64 3.0 7.0 0.00 0.00 0.00 80 1020.2
20240222183211 39 87 2.0 3.0 0.00 0.00 0.00 80 1020.2
20240222182711 39 61 1.0 3.0 0.00 0.00 0.00 81 1020.3
20240222182212 39 71 3.0 5.0 0.00 0.00 0.00 81 1020.3
20240222181711 39 59 3.0 7.0 0.00 0.00 0.00 81 1020.3
20240222181212 39 53 2.0 8.0 0.00 0.00 0.00 80 1020.3
20240222180712 39 37 4.0 8.0 0.00 0.00 0.00 80 1020.2
20240222180211 39 71 3.0 9.0 0.00 0.00 0.00 80 1020.1
20240222175212 39 97 3.0 10.0 0.00 0.00 0.00 80 1020.0
20240222174211 39 93 5.0 9.0 0.00 0.00 0.00 80 1020.0
20240222173730 39 83 4.0 9.0 0.00 0.00 0.00 81 1019.9
20240222173211 38 56 4.0 9.0 0.00 0.00 0.00 81 1019.9
20240222172711 38 78 5.0 9.0 0.00 0.00 0.00 81 1019.9
20240222172211 38 51 7.0 12.0 0.00 0.00 0.00 81 1019.9
20240222171711 38 92 2.0 6.0 0.00 0.00 0.00 81 1019.9
20240222171211 38 93 3.0 9.0 0.00 0.00 0.00 80 1019.9
20240222170712 38 80 5.0 9.0 0.00 0.00 0.00 79 1019.8
20240222170210 39 50 6.0 12.0 0.00 0.00 0.00 78 1019.9
20240222165211 40 59 5.0 12.0 0.00 0.00 0.00 75 1019.6
20240222164710 41 56 3.0 7.0 0.00 0.00 0.00 72 1019.6
20240222164210 41 49 0.0 2.0 0.00 0.00 0.00 70 1019.4
20240222163712 41 49 0.0 2.0 0.00 0.00 0.00 69 1019.4